| time (UTC) | temp F | wind direction | speed MPH | gust MPH | rain 1hr in | rain 24hr in | rain mn in | humidity % | barometer mb |
| 20260508053202 | 75 | 0 | 0.0 | 1.0 | 0.00 | 0.01 | 0.00 | 91 | 1012.5 |
| 20260508052701 | 75 | 0 | 0.0 | 1.0 | 0.00 | 0.01 | 0.00 | 91 | 1012.5 |
| 20260508051655 | 75 | 0 | 0.0 | 1.0 | 0.00 | 0.01 | 0.00 | 91 | 1012.5 |
| 20260508051154 | 75 | 0 | 0.0 | 1.0 | 0.00 | 0.01 | 0.00 | 91 | 1012.4 |
| 20260508050654 | 75 | 0 | 0.0 | 2.0 | 0.00 | 0.01 | 0.00 | 90 | 1012.5 |
| 20260508050155 | 76 | 0 | 0.0 | 2.0 | 0.00 | 0.01 | 0.00 | 90 | 1012.4 |
| 20260508045655 | 76 | 0 | 0.0 | 2.0 | 0.00 | 0.01 | 0.00 | 90 | 1012.4 |
| 20260508045155 | 76 | 0 | 0.0 | 2.0 | 0.00 | 0.01 | 0.00 | 90 | 1012.4 |
| 20260508044654 | 76 | 0 | 0.0 | 2.0 | 0.00 | 0.01 | 0.00 | 90 | 1012.4 |
| 20260508043655 | 76 | 0 | 0.0 | 2.0 | 0.00 | 0.01 | 0.00 | 89 | 1012.4 |
| 20260508043142 | 76 | 209 | 1.0 | 2.0 | 0.00 | 0.01 | 0.00 | 89 | 1012.4 |
| 20260508041640 | 77 | 0 | 0.0 | 2.0 | 0.00 | 0.01 | 0.00 | 89 | 1012.4 |
| 20260508040140 | 77 | 0 | 1.0 | 4.0 | 0.00 | 0.01 | 0.00 | 88 | 1012.5 |
| 20260508035641 | 76 | 0 | 1.0 | 4.0 | 0.00 | 0.01 | 0.01 | 88 | 1012.5 |
| 20260508035130 | 76 | 0 | 0.0 | 2.0 | 0.00 | 0.01 | 0.01 | 88 | 1012.4 |
| 20260508034635 | 77 | 351 | 2.0 | 5.0 | 0.00 | 0.01 | 0.01 | 88 | 1012.5 |
| 20260508034130 | 77 | 187 | 1.0 | 5.0 | 0.00 | 0.01 | 0.01 | 88 | 1012.4 |
| 20260508033629 | 77 | 237 | 0.0 | 2.0 | 0.00 | 0.01 | 0.01 | 87 | 1012.5 |
| 20260508033130 | 77 | 0 | 1.0 | 3.0 | 0.00 | 0.01 | 0.01 | 87 | 1012.4 |
| 20260508032630 | 78 | 152 | 2.0 | 6.0 | 0.00 | 0.01 | 0.01 | 86 | 1012.3 |
| 20260508032128 | 78 | 191 | 2.0 | 6.0 | 0.00 | 0.01 | 0.01 | 86 | 1012.3 |
| 20260508031629 | 78 | 0 | 1.0 | 3.0 | 0.00 | 0.01 | 0.01 | 85 | 1012.1 |
| 20260508031131 | 0 | 198 | 3.0 | 3.0 | 0.00 | 0.01 | 0.01 | ||
| 20260508030630 | 0 | 198 | 3.0 | 4.0 | 0.00 | 0.01 | 0.01 | ||
| 20260508030129 | 78 | 312 | 1.0 | 4.0 | 0.00 | 0.01 | 0.01 | 84 | 1012.0 |
| 20260508025130 | 78 | 214 | 1.0 | 2.0 | 0.00 | 0.01 | 0.01 | 84 | 1012.0 |
| 20260508024629 | 78 | 188 | 1.0 | 3.0 | 0.00 | 0.01 | 0.01 | 83 | 1012.0 |
| 20260508024130 | 79 | 155 | 1.0 | 3.0 | 0.00 | 0.01 | 0.01 | 83 | 1012.0 |
| 20260508023630 | 79 | 238 | 1.0 | 2.0 | 0.00 | 0.01 | 0.01 | 82 | 1012.0 |
| 20260508023129 | 79 | 186 | 2.0 | 3.0 | 0.00 | 0.01 | 0.01 | 82 | 1011.9 |
| 20260508022630 | 79 | 233 | 1.0 | 3.0 | 0.00 | 0.01 | 0.01 | 81 | 1011.9 |
| 20260508021629 | 79 | 207 | 1.0 | 4.0 | 0.00 | 0.01 | 0.01 | 80 | 1011.9 |
| 20260508021131 | 80 | 194 | 2.0 | 6.0 | 0.00 | 0.01 | 0.01 | 80 | 1012.0 |
| 20260508020130 | 80 | 0 | 1.0 | 3.0 | 0.00 | 0.01 | 0.01 | 79 | 1011.8 |
| 20260508015629 | 80 | 154 | 1.0 | 4.0 | 0.00 | 0.01 | 0.01 | 78 | 1011.8 |
| 20260508015129 | 80 | 0 | 1.0 | 4.0 | 0.00 | 0.01 | 0.01 | 77 | 1011.8 |
| 20260508014631 | 80 | 237 | 2.0 | 8.0 | 0.00 | 0.01 | 0.01 | 76 | 1011.7 |
| 20260508014129 | 81 | 0 | 4.0 | 8.0 | 0.00 | 0.01 | 0.01 | 76 | 1011.7 |
| 20260508013629 | 81 | 243 | 4.0 | 8.0 | 0.00 | 0.01 | 0.01 | 75 | 1011.7 |
| 20260508013129 | 81 | 203 | 3.0 | 8.0 | 0.00 | 0.01 | 0.01 | 74 | 1011.6 |
| 20260508012629 | 81 | 268 | 2.0 | 8.0 | 0.00 | 0.01 | 0.01 | 74 | 1011.6 |
| 20260508012129 | 81 | 252 | 2.0 | 5.0 | 0.00 | 0.01 | 0.01 | 73 | 1011.6 |
| 20260508011629 | 82 | 0 | 3.0 | 8.0 | 0.00 | 0.01 | 0.01 | 71 | 1011.5 |
| 20260508010629 | 82 | 289 | 3.0 | 7.0 | 0.00 | 0.01 | 0.01 | 70 | 1011.3 |
| 20260508010129 | 82 | 279 | 2.0 | 5.0 | 0.00 | 0.01 | 0.01 | 70 | 1011.1 |
| 20260508005628 | 82 | 224 | 2.0 | 6.0 | 0.00 | 0.01 | 0.01 | 70 | 1011.0 |
| 20260508004629 | 82 | 214 | 0.0 | 2.0 | 0.00 | 0.01 | 0.01 | 69 | 1010.8 |
| 20260508004128 | 82 | 296 | 1.0 | 3.0 | 0.00 | 0.01 | 0.01 | 68 | 1010.8 |
| 20260508003627 | 82 | 0 | 1.0 | 3.0 | 0.00 | 0.01 | 0.01 | 68 | 1010.8 |
| 20260508003127 | 82 | 322 | 0.0 | 2.0 | 0.00 | 0.01 | 0.01 | 67 | 1010.6 |
| 20260508001628 | 83 | 300 | 1.0 | 3.0 | 0.00 | 0.01 | 0.01 | 66 | 1010.7 |
| 20260508001128 | 84 | 0 | 2.0 | 4.0 | 0.00 | 0.01 | 0.01 | 65 | 1010.7 |
| 20260508000627 | 84 | 210 | 1.0 | 5.0 | 0.00 | 0.01 | 0.01 | 64 | 1010.6 |
| 20260508000119 | 84 | 208 | 2.0 | 6.0 | 0.00 | 0.01 | 0.01 | 63 | 1010.7 |
| 20260507235620 | 84 | 222 | 1.0 | 6.0 | 0.00 | 0.01 | 0.01 | 63 | 1010.8 |
| 20260507235121 | 85 | 302 | 1.0 | 4.0 | 0.00 | 0.01 | 0.01 | 62 | 1010.7 |
| 20260507234622 | 85 | 0 | 1.0 | 4.0 | 0.00 | 0.01 | 0.01 | 62 | 1010.7 |
| 20260507233619 | 85 | 203 | 2.0 | 5.0 | 0.00 | 0.02 | 0.01 | 61 | 1010.7 |
| 20260507232619 | 86 | 215 | 1.0 | 8.0 | 0.00 | 0.02 | 0.01 | 60 | 1010.6 |
| 20260507232119 | 86 | 187 | 2.0 | 9.0 | 0.00 | 0.02 | 0.01 | 59 | 1010.5 |
| 20260507231618 | 86 | 229 | 2.0 | 9.0 | 0.00 | 0.02 | 0.01 | 59 | 1010.5 |
| 20260507231119 | 86 | 217 | 1.0 | 5.0 | 0.00 | 0.02 | 0.01 | 59 | 1010.5 |
| 20260507230618 | 86 | 0 | 1.0 | 5.0 | 0.00 | 0.02 | 0.01 | 59 | 1010.4 |
| 20260507225619 | 86 | 0 | 1.0 | 5.0 | 0.00 | 0.02 | 0.01 | 58 | 1010.2 |
| 20260507225118 | 86 | 227 | 2.0 | 5.0 | 0.00 | 0.02 | 0.01 | 57 | 1010.1 |
| 20260507224619 | 86 | 213 | 2.0 | 8.0 | 0.00 | 0.02 | 0.01 | 57 | 1010.1 |
| 20260507224116 | 86 | 218 | 2.0 | 9.0 | 0.00 | 0.02 | 0.01 | 57 | 1010.1 |
| 20260507223615 | 87 | 220 | 2.0 | 9.0 | 0.00 | 0.02 | 0.01 | 57 | 1010.2 |
| 20260507223115 | 87 | 212 | 2.0 | 9.0 | 0.00 | 0.02 | 0.01 | 56 | 1010.0 |
| 20260507222612 | 88 | 336 | 2.0 | 9.0 | 0.00 | 0.02 | 0.01 | 56 | 1010.0 |
| 20260507222113 | 88 | 146 | 2.0 | 5.0 | 0.00 | 0.02 | 0.01 | 55 | 1010.1 |
| 20260507221113 | 88 | 205 | 3.0 | 8.0 | 0.00 | 0.02 | 0.01 | 54 | 1010.1 |
| 20260507220613 | 87 | 275 | 3.0 | 8.0 | 0.00 | 0.02 | 0.01 | 55 | 1010.1 |
| 20260507220114 | 87 | 210 | 2.0 | 5.0 | 0.00 | 0.02 | 0.01 | 55 | 1009.9 |
| 20260507215614 | 88 | 0 | 2.0 | 5.0 | 0.00 | 0.02 | 0.01 | 53 | 1009.8 |
| 20260507215112 | 88 | 232 | 2.0 | 6.0 | 0.00 | 0.02 | 0.01 | 55 | 1009.7 |
| 20260507214112 | 88 | 225 | 3.0 | 8.0 | 0.00 | 0.02 | 0.01 | 54 | 1009.6 |
| 20260507213612 | 88 | 195 | 3.0 | 6.0 | 0.00 | 0.02 | 0.01 | 55 | 1009.5 |
| 20260507213111 | 88 | 190 | 3.0 | 6.0 | 0.00 | 0.02 | 0.01 | 55 | 1009.6 |
| 20260507212612 | 87 | 236 | 2.0 | 7.0 | 0.00 | 0.02 | 0.01 | 56 | 1009.8 |
| 20260507212112 | 87 | 201 | 3.0 | 7.0 | 0.00 | 0.02 | 0.01 | 56 | 1009.8 |
| 20260507211113 | 86 | 211 | 2.0 | 5.0 | 0.00 | 0.02 | 0.01 | 59 | 1009.6 |
| 20260507210112 | 86 | 214 | 2.0 | 7.0 | 0.00 | 0.02 | 0.01 | 61 | 1009.8 |
| 20260507205609 | 85 | 216 | 2.0 | 5.0 | 0.00 | 0.02 | 0.01 | 61 | 1010.2 |
| 20260507205110 | 84 | 164 | 2.0 | 7.0 | 0.00 | 0.02 | 0.01 | 62 | 1010.5 |
| 20260507204606 | 83 | 226 | 2.0 | 7.0 | 0.00 | 0.02 | 0.01 | 64 | 1010.7 |
| 20260507204105 | 83 | 236 | 2.0 | 7.0 | 0.00 | 0.02 | 0.01 | 64 | 1010.9 |
| 20260507203605 | 83 | 160 | 2.0 | 5.0 | 0.00 | 0.02 | 0.01 | 65 | 1011.0 |
| 20260507203106 | 83 | 224 | 2.0 | 5.0 | 0.00 | 0.02 | 0.01 | 66 | 1011.2 |
| 20260507202607 | 83 | 255 | 2.0 | 5.0 | 0.00 | 0.02 | 0.01 | 66 | 1011.5 |
| 20260507202107 | 83 | 321 | 2.0 | 5.0 | 0.00 | 0.02 | 0.01 | 66 | 1011.6 |
| 20260507201607 | 83 | 152 | 2.0 | 5.0 | 0.00 | 0.02 | 0.01 | 65 | 1011.7 |
| 20260507200607 | 82 | 211 | 2.0 | 5.0 | 0.00 | 0.02 | 0.01 | 66 | 1011.9 |
| 20260507200108 | 82 | 220 | 1.0 | 5.0 | 0.00 | 0.02 | 0.01 | 65 | 1011.7 |
| 20260507195604 | 82 | 230 | 2.0 | 6.0 | 0.00 | 0.02 | 0.01 | 65 | 1012.1 |
| 20260507194602 | 83 | 190 | 2.0 | 6.0 | 0.00 | 0.02 | 0.01 | 65 | 1012.3 |
| 20260507194102 | 83 | 239 | 2.0 | 5.0 | 0.00 | 0.02 | 0.01 | 64 | 1012.3 |
| 20260507193601 | 83 | 0 | 2.0 | 6.0 | 0.00 | 0.02 | 0.01 | 64 | 1012.2 |
| 20260507193101 | 83 | 232 | 3.0 | 6.0 | 0.00 | 0.02 | 0.01 | 64 | 1012.1 |
| 20260507192600 | 83 | 243 | 2.0 | 5.0 | 0.00 | 0.02 | 0.01 | 64 | 1011.9 |
| 20260507192101 | 84 | 213 | 2.0 | 5.0 | 0.00 | 0.02 | 0.01 | 64 | 1012.0 |
| 20260507191607 | 83 | 232 | 2.0 | 6.0 | 0.00 | 0.02 | 0.01 | 65 | 1012.2 |
| 20260507191102 | 83 | 219 | 3.0 | 10.0 | 0.00 | 0.02 | 0.01 | 65 | 1012.3 |
| 20260507190601 | 83 | 198 | 5.0 | 12.0 | 0.00 | 0.02 | 0.01 | 66 | 1012.5 |
| 20260507185602 | 83 | 295 | 4.0 | 11.0 | 0.00 | 0.02 | 0.01 | 66 | 1013.1 |
| 20260507185101 | 83 | 217 | 5.0 | 11.0 | 0.00 | 0.02 | 0.01 | 67 | 1013.2 |
| 20260507184601 | 82 | 247 | 5.0 | 10.0 | 0.00 | 0.02 | 0.01 | 68 | 1013.1 |
| 20260507183601 | 82 | 215 | 6.0 | 16.0 | 0.00 | 0.02 | 0.01 | 69 | 1013.4 |
| 20260507183102 | 81 | 314 | 8.0 | 18.0 | 0.00 | 0.02 | 0.01 | 69 | 1013.5 |
| 20260507182602 | 81 | 273 | 8.0 | 18.0 | 0.00 | 0.02 | 0.01 | 70 | 1013.5 |
| 20260507182104 | 82 | 285 | 6.0 | 17.0 | 0.00 | 0.02 | 0.01 | 69 | 1013.5 |
| 20260507181602 | 82 | 320 | 7.0 | 13.0 | 0.00 | 0.02 | 0.01 | 70 | 1013.7 |
| 20260507181102 | 82 | 300 | 8.0 | 16.0 | 0.00 | 0.02 | 0.01 | 69 | 1013.7 |
| 20260507175602 | 82 | 319 | 6.0 | 12.0 | 0.00 | 0.02 | 0.01 | 67 | 1013.8 |
| 20260507174100 | 82 | 282 | 5.0 | 13.0 | 0.00 | 0.02 | 0.01 | 65 | 1013.9 |
| 20260507173602 | 82 | 278 | 6.0 | 13.0 | 0.00 | 0.02 | 0.01 | 65 | 1013.9 |
| 20260507173101 | 82 | 328 | 5.0 | 10.0 | 0.00 | 0.02 | 0.01 | 64 | 1014.1 |
| 20260507172601 | 82 | 298 | 5.0 | 10.0 | 0.00 | 0.02 | 0.01 | 65 | 1014.1 |
| 20260507172101 | 82 | 326 | 5.0 | 12.0 | 0.00 | 0.02 | 0.01 | 65 | 1014.0 |
| 20260507171600 | 82 | 303 | 6.0 | 12.0 | 0.00 | 0.02 | 0.01 | 65 | 1014.1 |
| 20260507171101 | 83 | 302 | 7.0 | 13.0 | 0.00 | 0.02 | 0.01 | 65 | 1014.0 |
| 20260507170601 | 83 | 314 | 7.0 | 13.0 | 0.00 | 0.02 | 0.01 | 65 | 1013.9 |
| 20260507165601 | 85 | 287 | 3.0 | 11.0 | 0.00 | 0.02 | 0.01 | 58 | 1013.8 |
| 20260507165101 | 85 | 190 | 4.0 | 11.0 | 0.00 | 0.02 | 0.01 | 54 | 1013.8 |
| 20260507164600 | 86 | 293 | 4.0 | 11.0 | 0.00 | 0.02 | 0.01 | 52 | 1013.8 |
| 20260507164101 | 85 | 268 | 5.0 | 13.0 | 0.00 | 0.02 | 0.01 | 54 | 1013.9 |
| 20260507163600 | 85 | 277 | 5.0 | 13.0 | 0.00 | 0.02 | 0.01 | 53 | 1013.9 |
| 20260507163101 | 85 | 280 | 6.0 | 13.0 | 0.00 | 0.02 | 0.01 | 54 | 1013.9 |
| 20260507162600 | 84 | 288 | 7.0 | 13.0 | 0.00 | 0.02 | 0.01 | 56 | 1014.0 |
| 20260507162101 | 84 | 304 | 7.0 | 14.0 | 0.00 | 0.02 | 0.01 | 54 | 1014.0 |
| 20260507161600 | 84 | 287 | 6.0 | 14.0 | 0.00 | 0.02 | 0.01 | 54 | 1014.0 |
| 20260507161100 | 84 | 289 | 6.0 | 14.0 | 0.00 | 0.02 | 0.01 | 54 | 1014.0 |
| 20260507160601 | 83 | 344 | 7.0 | 14.0 | 0.00 | 0.02 | 0.01 | 55 | 1014.0 |
| 20260507155105 | 83 | 239 | 8.0 | 13.0 | 0.00 | 0.02 | 0.01 | 53 | 1014.2 |
| 20260507154601 | 83 | 299 | 7.0 | 13.0 | 0.00 | 0.02 | 0.01 | 54 | 1014.2 |
| 20260507154100 | 84 | 285 | 7.0 | 13.0 | 0.00 | 0.02 | 0.01 | 54 | 1014.4 |
| 20260507152601 | 83 | 311 | 5.0 | 11.0 | 0.00 | 0.02 | 0.01 | 58 | 1014.6 |
| 20260507152101 | 82 | 287 | 4.0 | 11.0 | 0.00 | 0.02 | 0.01 | 63 | 1014.5 |
| 20260507151101 | 82 | 318 | 3.0 | 9.0 | 0.00 | 0.02 | 0.01 | 65 | 1014.3 |
| 20260507150601 | 82 | 288 | 3.0 | 9.0 | 0.00 | 0.02 | 0.01 | 67 | 1014.2 |
| 20260507145606 | 81 | 294 | 3.0 | 9.0 | 0.00 | 0.02 | 0.01 | 70 | 1014.0 |
| 20260507145102 | 81 | 289 | 3.0 | 9.0 | 0.00 | 0.02 | 0.01 | 68 | 1014.1 |
| 20260507144601 | 81 | 321 | 3.0 | 9.0 | 0.00 | 0.02 | 0.01 | 70 | 1013.8 |
| 20260507143601 | 81 | 145 | 1.0 | 3.0 | 0.00 | 0.02 | 0.01 | 70 | 1013.5 |
| 20260507143102 | 80 | 0 | 1.0 | 3.0 | 0.00 | 0.02 | 0.01 | 71 | 1013.4 |
| 20260507142601 | 80 | 0 | 1.0 | 3.0 | 0.00 | 0.02 | 0.01 | 73 | 1013.2 |
| 20260507142101 | 80 | 18 | 1.0 | 4.0 | 0.00 | 0.02 | 0.01 | 73 | 1013.3 |
| 20260507141602 | 79 | 320 | 2.0 | 4.0 | 0.00 | 0.02 | 0.01 | 74 | 1013.3 |
| 20260507141101 | 79 | 332 | 1.0 | 4.0 | 0.00 | 0.02 | 0.01 | 76 | 1013.4 |
| 20260507140601 | 79 | 245 | 1.0 | 3.0 | 0.00 | 0.02 | 0.01 | 76 | 1013.6 |
| 20260507135601 | 78 | 231 | 1.0 | 4.0 | 0.00 | 0.02 | 0.01 | 78 | 1013.5 |
| 20260507135102 | 78 | 0 | 1.0 | 3.0 | 0.00 | 0.02 | 0.01 | 78 | 1013.5 |
| 20260507134600 | 78 | 0 | 1.0 | 4.0 | 0.00 | 0.02 | 0.01 | 78 | 1013.6 |
| 20260507133601 | 76 | 0 | 1.0 | 5.0 | 0.00 | 0.02 | 0.01 | 80 | 1013.9 |
| 20260507133101 | 76 | 280 | 2.0 | 6.0 | 0.00 | 0.02 | 0.01 | 81 | 1014.0 |
| 20260507132601 | 76 | 157 | 2.0 | 6.0 | 0.00 | 0.02 | 0.01 | 82 | 1014.0 |
| 20260507132101 | 76 | 298 | 1.0 | 4.0 | 0.00 | 0.02 | 0.01 | 82 | 1013.8 |
| 20260507131600 | 76 | 0 | 1.0 | 4.0 | 0.00 | 0.02 | 0.01 | 83 | 1013.8 |
| 20260507131101 | 75 | 0 | 1.0 | 4.0 | 0.00 | 0.02 | 0.01 | 84 | 1013.8 |
| 20260507130602 | 75 | 235 | 1.0 | 4.0 | 0.00 | 0.02 | 0.01 | 85 | 1013.8 |
| 20260507125602 | 73 | 224 | 1.0 | 3.0 | 0.01 | 0.02 | 0.01 | 87 | 1013.7 |
| 20260507125101 | 73 | 0 | 0.0 | 2.0 | 0.01 | 0.02 | 0.01 | 88 | 1013.9 |
| 20260507124102 | 71 | 332 | 1.0 | 3.0 | 0.01 | 0.02 | 0.01 | 91 | 1014.0 |
| 20260507123102 | 70 | 0 | 2.0 | 6.0 | 0.01 | 0.02 | 0.01 | 94 | 1014.0 |
| 20260507122601 | 69 | 0 | 4.0 | 7.0 | 0.01 | 0.02 | 0.01 | 94 | 1014.0 |
| 20260507122100 | 69 | 12 | 5.0 | 9.0 | 0.01 | 0.02 | 0.01 | 95 | 1013.9 |
| 20260507121601 | 68 | 326 | 4.0 | 9.0 | 0.01 | 0.02 | 0.01 | 96 | 1014.0 |
| 20260507121100 | 68 | 322 | 1.0 | 6.0 | 0.01 | 0.02 | 0.01 | 97 | 1013.8 |
| 20260507120602 | 68 | 320 | 0.0 | 3.0 | 0.01 | 0.02 | 0.01 | 97 | 1013.5 |
| 20260507115602 | 0 | 0 | 2.0 | 0.0 | 0.00 | 0.01 | 0.00 | ||
| 20260507115102 | 0 | 0 | 2.0 | 0.0 | 0.00 | 0.01 | 0.00 | ||
| 20260507114043 | 65 | 296 | 1.0 | 2.0 | 0.00 | 0.01 | 0.00 | 97 | 1013.4 |
| 20260507113530 | 65 | 296 | 1.0 | 2.0 | 0.00 | 0.01 | 0.00 | 97 | 1013.4 |
| 20260507112528 | 65 | 0 | 0.0 | 1.0 | 0.00 | 0.01 | 0.00 | 96 | 1013.2 |
| 20260507111528 | 65 | 0 | 0.0 | 0.0 | 0.00 | 0.01 | 0.00 | 96 | 1013.2 |
| 20260507111028 | 65 | 0 | 0.0 | 1.0 | 0.00 | 0.01 | 0.00 | 96 | 1013.3 |
| 20260507110527 | 65 | 0 | 0.0 | 1.0 | 0.00 | 0.01 | 0.00 | 96 | 1013.3 |
| 20260507105528 | 65 | 0 | 0.0 | 1.0 | 0.00 | 0.01 | 0.00 | 96 | 1013.1 |
| 20260507105028 | 65 | 0 | 0.0 | 2.0 | 0.00 | 0.01 | 0.00 | 96 | 1013.2 |
| 20260507104527 | 65 | 0 | 0.0 | 2.0 | 0.00 | 0.01 | 0.00 | 95 | 1013.1 |
| 20260507104028 | 65 | 0 | 0.0 | 2.0 | 0.00 | 0.01 | 0.00 | 95 | 1013.0 |
| 20260507103012 | 66 | 226 | 0.0 | 1.0 | 0.00 | 0.01 | 0.00 | 95 | 1013.0 |
| 20260507101513 | 66 | 0 | 0.0 | 1.0 | 0.00 | 0.01 | 0.00 | 94 | 1013.3 |
| 20260507101009 | 67 | 0 | 0.0 | 1.0 | 0.00 | 0.01 | 0.00 | 94 | 1013.3 |
| 20260507100501 | 67 | 0 | 0.0 | 2.0 | 0.00 | 0.01 | 0.00 | 94 | 1013.2 |
| 20260507100003 | 67 | 0 | 0.0 | 4.0 | 0.00 | 0.01 | 0.00 | 94 | 1013.3 |
| 20260507095501 | 67 | 9 | 1.0 | 4.0 | 0.00 | 0.01 | 0.00 | 94 | 1013.2 |
| 20260507095001 | 67 | 265 | 0.0 | 2.0 | 0.00 | 0.01 | 0.00 | 93 | 1013.1 |
| 20260507093502 | 67 | 0 | 0.0 | 3.0 | 0.00 | 0.01 | 0.00 | 93 | 1012.9 |
| 20260507093001 | 68 | 0 | 1.0 | 4.0 | 0.00 | 0.01 | 0.00 | 93 | 1012.8 |
| 20260507092502 | 68 | 289 | 1.0 | 4.0 | 0.00 | 0.01 | 0.00 | 92 | 1012.9 |
| 20260507092000 | 68 | 0 | 0.0 | 1.0 | 0.00 | 0.01 | 0.00 | 92 | 1012.7 |
| 20260507091501 | 68 | 0 | 0.0 | 1.0 | 0.00 | 0.01 | 0.00 | 92 | 1012.7 |
| 20260507090501 | 68 | 0 | 0.0 | 2.0 | 0.00 | 0.01 | 0.00 | 92 | 1012.7 |
| 20260507090001 | 68 | 215 | 1.0 | 2.0 | 0.00 | 0.01 | 0.00 | 92 | 1012.6 |
| 20260507085502 | 68 | 223 | 1.0 | 3.0 | 0.00 | 0.01 | 0.00 | 92 | 1012.5 |
| 20260507085000 | 68 | 237 | 1.0 | 3.0 | 0.00 | 0.01 | 0.00 | 92 | 1012.4 |
| 20260507084000 | 68 | 0 | 1.0 | 3.0 | 0.00 | 0.01 | 0.00 | 92 | 1012.0 |
| 20260507083501 | 68 | 0 | 0.0 | 2.0 | 0.00 | 0.01 | 0.00 | 92 | 1012.0 |
| 20260507083001 | 68 | 221 | 0.0 | 2.0 | 0.00 | 0.01 | 0.00 | 91 | 1012.0 |
| 20260507082502 | 68 | 0 | 0.0 | 1.0 | 0.00 | 0.01 | 0.00 | 91 | 1012.0 |
| 20260507082001 | 68 | 0 | 0.0 | 2.0 | 0.00 | 0.01 | 0.00 | 91 | 1011.9 |
| 20260507081501 | 69 | 0 | 0.0 | 2.0 | 0.00 | 0.01 | 0.00 | 91 | 1011.9 |
| 20260507080501 | 69 | 0 | 0.0 | 2.0 | 0.00 | 0.01 | 0.00 | 91 | 1011.9 |
| 20260507080002 | 69 | 0 | 0.0 | 0.0 | 0.00 | 0.01 | 0.00 | 90 | 1012.0 |
| 20260507075001 | 70 | 0 | 2.0 | 3.0 | 0.00 | 0.01 | 0.00 | 90 | 1012.2 |
| 20260507074500 | 70 | 286 | 1.0 | 3.0 | 0.00 | 0.01 | 0.00 | 89 | 1012.1 |
| 20260507074000 | 71 | 319 | 0.0 | 2.0 | 0.00 | 0.01 | 0.00 | 89 | 1012.2 |
| 20260507073502 | 71 | 0 | 0.0 | 2.0 | 0.00 | 0.01 | 0.00 | 88 | 1012.1 |
| 20260507073001 | 71 | 0 | 1.0 | 2.0 | 0.00 | 0.01 | 0.00 | 88 | 1012.1 |
| 20260507072502 | 71 | 178 | 0.0 | 2.0 | 0.00 | 0.01 | 0.00 | 88 | 1012.3 |
| 20260507072001 | 71 | 167 | 0.0 | 2.0 | 0.00 | 0.01 | 0.00 | 88 | 1012.3 |
| 20260507071001 | 71 | 0 | 1.0 | 2.0 | 0.00 | 0.01 | 0.00 | 88 | 1012.6 |
| 20260507070501 | 71 | 0 | 1.0 | 2.0 | 0.00 | 0.01 | 0.00 | 88 | 1012.6 |
| 20260507070002 | 71 | 169 | 1.0 | 2.0 | 0.00 | 0.01 | 0.00 | 89 | 1012.5 |
| 20260507065503 | 71 | 230 | 1.0 | 2.0 | 0.00 | 0.01 | 0.00 | 88 | 1012.6 |
| 20260507064502 | 70 | 0 | 0.0 | 1.0 | 0.00 | 0.01 | 0.00 | 89 | 1012.7 |
| 20260507062947 | 69 | 0 | 0.0 | 1.0 | 0.00 | 0.01 | 0.00 | 91 | 1012.9 |
| 20260507062446 | 69 | 0 | 0.0 | 1.0 | 0.00 | 0.01 | 0.00 | 90 | 1012.9 |
| 20260507061947 | 69 | 0 | 0.0 | 2.0 | 0.00 | 0.01 | 0.00 | 91 | 1013.0 |
| 20260507060450 | 69 | 0 | 0.0 | 2.0 | 0.00 | 0.01 | 0.00 | 90 | 1013.3 |
| 20260507055947 | 69 | 0 | 0.0 | 2.0 | 0.00 | 0.01 | 0.00 | 90 | 1013.4 |
| 20260507055446 | 70 | 0 | 0.0 | 0.0 | 0.00 | 0.01 | 0.00 | 90 | 1013.5 |
| 20260507054947 | 70 | 0 | 0.0 | 0.0 | 0.00 | 0.01 | 0.00 | 90 | 1013.6 |
| 20260507054445 | 70 | 0 | 0.0 | 2.0 | 0.00 | 0.01 | 0.00 | 90 | 1013.6 |
| 20260507053934 | 70 | 0 | 0.0 | 2.0 | 0.00 | 0.01 | 0.00 | 90 | 1013.6 |